Regional Weather Roundup
Issued by NWS State College, PA

Home | Current Version | Previous Version | Graphics & Text | Print | Product List | Glossary On
Versions: 1 2 3 4 5 6 7 8 9 10 11 12 13 14 15 16 17 18 19 20 21 22 23 24 25 26 27 28 29 30 31 32 33 34 35 36 37 38 39 40 41 42 43 44 45 46 47 48 49 50
000
ASUS41 KCTP 080003
RWRCTP

REGIONAL WEATHER ROUNDUP
NATIONAL WEATHER SERVICE STATE COLLEGE PA
700 PM EST WED DEC 07 2016

Note: "fair" indicates few or no clouds below 12,000 feet with no
significant weather and/or obstructions to visibility.

* = STATION THAT DOES NOT REPORT PRECIPITATION /E.G. RAIN...SNOW...ETC/
    THUNDER OR FOG.

PAZ002>004-007>009-013>016-020>023-029>032-080100-
WESTERN PENNSYLVANIA

CITY           SKY/WX    TMP DP  RH WIND       PRES   REMARKS
ERIE           CLEAR     35  22  58 SW8       30.04S
MEADVILLE      MOCLDY    32  21  64 SW9       30.02F
FRANKLIN*        N/A     30  18  59 SW6       30.04S
NEW CASTLE     CLOUDY    34  22  61 SW3       30.07
BEAVER COUNTY  CLOUDY    34  23  64 SW5       30.06
BUTLER*        CLOUDY    34  19  55 SW6       30.08S
PITTSBURGH INT CLOUDY    38  22  52 SW5       30.06S
PITTSBURGH     CLOUDY    37  20  50 W7        30.05F
INDIANA*       CLOUDY    34  23  64 W5        30.07S
LATROBE        MOCLDY    36  25  64 SW6       30.07S
WASHINGTON CO* CLOUDY    37  21  52 CALM      30.07F
$$

PAZ004>006-010>012-017>019-024>028-033>037-041-042-045-046-049>053-080100-
CENTRAL PENNSYLVANIA

CITY           SKY/WX    TMP DP  RH WIND       PRES   REMARKS
BRADFORD       PTCLDY    32  22  66 VRB3      29.97F
DUBOIS         CLOUDY    32  19  58 W5        30.00S
CLEARFIELD     CLOUDY    36  24  62 SW7       30.02S
JOHNSTOWN      CLEAR     31  21  66 W6        30.00S
ALTOONA        PTCLDY    36  20  52 W6        30.04S
STATE COLLEGE  CLEAR     36  23  60 W7        30.03S
WILLIAMSPORT   CLOUDY    38  31  76 CALM      30.02S
SELINSGROVE    CLOUDY    38  33  82 CALM      30.05R
FT INDIANTOWN  CLOUDY    41  31  66 VRB1      30.04R
CAPITAL CITY   PTCLDY    42  30  62 W5        30.05R
HARRISBURG     CLOUDY    40  34  79 CALM      30.05R
YORK           PTCLDY    35  33  92 CALM      30.05R
$$

PAZ038>040-043-044-047-048-054-055-060>062-067>071-080100-
EASTERN PENNSYLVANIA

CITY           SKY/WX    TMP DP  RH WIND       PRES   REMARKS
SCRANTON       CLOUDY    39  31  72 CALM      30.01R
MOUNT POCONO   CLOUDY    33  28  81 NW3       29.98R
ALLENTOWN      MOCLDY    40  29  64 SW3       30.04S
QUAKERTOWN*    PTCLDY    36  32  87 CALM      30.04F
READING        PTCLDY    41  29  62 CALM      30.04S
LANCASTER      PTCLDY    39  31  72 CALM      30.06R
COATESVILLE    CLEAR     39  28  65 CALM      30.06R
POTTSTOWN      CLOUDY    39  31  72 W3        30.06S
BLUE BELL      PTCLDY    34  34 100 CALM      30.04S
DOYLESTOWN     PTCLDY    41  37  86 CALM      30.03S
WILLOW GROVE   NOT AVBL
NORTH PHILA    CLEAR     39  35  86 CALM      30.06F
PHILADELPHIA   MOCLDY    44  33  65 W8        30.07R
$$




USA.gov is the U.S. government's official web portal to all federal, state and local government web resources and services.